Location: Ashton River Estates
(39.1762°N, 77.0261°W)
Time: 23:45:18
(UTC+00:00)

Cosmos 1606 Rocket - Pass Details

Date: 29 October 2020
Orbit: 603 x 632 km, 82.5° (Epoch: 03 December)

Event Time Altitude Azimuth Distance (km) Brightness Sun altitude
Rises 22:28:29 0° 188° (S) 2,859 7.3 -4.3°
Reaches altitude 10° 22:30:41 10° 188° (S) 1,963 6.5 -4.7°
Maximum altitude 22:35:02 84° 277° (W) 626 3.7 -5.5°
Drops below altitude 10° 22:39:28 10° 6° (N) 1,997 6.0 -6.4°
Sets 22:41:43 0° 7° (N) 2,912 6.8 -6.8°
